Tracking 30970 objects as of 3-Jul-2025
HD Live streaming from Space Station
objects crossing your sky now

DELTA 1 DEB

Track DELTA 1 DEB now!
10-day predictions


NORAD ID: 21682
Int'l Code: 1975-052JJ
Perigee: 1,088.6 km
Apogee: 2,487.7 km
Inclination: 99.4 °
Period: 122.2 minutes
Semi major axis: 8159 km
RCS: 0.089 m2 (small)
Launch date: June 12, 1975
Source: United States (US)
Launch site: AIR FORCE WESTERN TEST RANGE (AFWTR)

Note: This is SATELLITE DEBRIS
Your satellite tracking list
Your tracking list is empty




NASA's NSSDC Master Catalog

Two Line Element Set (TLE):
1 21682U 75052JJ  25183.70868914  .00003763  00000-0  22957-1 0  9995
2 21682  99.4115 239.2740 0857335 199.4027 293.2183 11.77972026454159
Source of the keplerian elements: AFSPC